[[{"header":{"parameterUnit":"m.s-1","parameterCategory":1,"la1":30.2991,"la2":30.254,"lo1":-89.0895,"lo2":-89.0444,"dy":0.0017,"dx":0.0017,"nx":28,"ny":28,"refTime":"2025-08-23T03:00:00:Z","depth":0,"parameterNumber":2,"parameterNumberName":"U-component_of_WINDS"},"data":[0,0,0,0,0,0,0,0,0,0,0,0,0,0,0,0,0,0,0,0,0,0,0,0,0,0,0,0,0,0,0,0,0,0,0,0,0,0,0,0,0,0,0,0,0,0,0,0,0,0,0,0,0,0,0,0,0,0,1.5072,1.5072,0,1.5119,1.512,1.512,1.5125,1.5125,1.5124,1.5124,1.5177,1.5179,1.5181,0,0,0,0,0,0,0,0,0,0,0,0,0,1.4989,1.499,1.5072,1.5072,1.5073,1.5119,1.512,1.5121,1.5125,1.5125,1.5124,1.5123,1.5176,1.5179,1.5181,0,0,0,0,0,0,0,0,0,0,0,0,0,1.503,1.4991,1.5072,1.5081,1.5082,1.5119,1.512,1.5121,1.5125,1.5125,1.5124,1.5123,1.5176,1.5178,1.5181,1.5214,0,0,1.519,1.5191,0,0,0,0,0,0,0,0,1.5027,1.5033,1.5079,1.508,1.5082,1.5115,1.511,1.5152,1.5126,1.5109,1.5124,1.5123,1.5157,1.5162,1.5172,1.5216,1.5219,1.519,1.5192,1.5193,1.5194,0,0,0,0,0,0,0,1.5025,1.5031,1.5091,1.5079,1.5081,1.5084,1.5089,1.5118,1.5137,1.511,1.5111,1.5116,1.5158,1.517,1.5174,1.5219,1.519,1.5192,1.5194,1.5195,1.5293,1.5294,0,0,0,0,0,0,1.5019,1.5028,1.5089,1.5092,1.5052,1.5086,1.5091,1.5105,1.5137,1.5141,1.5117,1.5116,1.5165,1.517,1.5176,1.5216,1.5193,1.5196,1.5197,1.5292,1.5293,1.5294,0,0,0,0,0,0,1.5018,1.5025,1.5087,1.506,1.5068,1.5088,1.5104,1.5107,1.5118,1.5141,1.5145,1.5125,1.5165,1.5172,1.5204,1.5218,1.5197,1.5199,1.5291,1.5293,1.5294,1.5297,0,0,0,0,0,0,1.5015,1.5024,1.5036,1.506,1.507,1.5114,1.5105,1.5108,1.5123,1.5122,1.515,1.5154,1.5165,1.52,1.5207,1.5221,1.5202,1.529,1.5292,1.5293,1.5296,1.5298,1.53,0,0,0,0,0,1.5012,1.5036,1.5036,1.5044,1.5084,1.5114,1.512,1.513,1.5124,1.5136,1.5151,1.5153,1.5215,1.5203,1.5211,1.5227,1.5289,1.5291,1.5293,1.5295,1.5298,1.53,0,0,0,0,0,0,1.5013,1.5039,1.504,1.5072,1.5091,1.5115,1.5131,1.5133,1.5156,1.5155,1.5168,1.5175,1.5207,1.522,1.5206,1.526,1.5252,1.5256,1.525,1.5253,1.5256,1.5252,1.5204,0,0,0,0,0,1.5017,1.5038,1.506,1.5086,1.5095,1.5111,1.5125,1.5131,1.5152,1.516,1.5178,1.5199,1.5223,1.5239,1.5263,1.5298,1.5304,1.5313,1.5315,1.5317,1.532,1.534,1.5344,1.5301,1.5301,1.5301,0,0,1.5025,1.5042,1.5054,1.5086,1.5102,1.5124,1.5118,1.5142,1.5159,1.5165,1.5196,1.5209,1.5234,1.5268,1.5284,1.528,1.5333,1.5319,1.5321,1.5323,1.5342,1.5346,1.535,1.5302,1.5302,1.5302,0,0,1.5052,1.5066,1.5089,1.5104,1.5127,1.5138,1.5144,1.5168,1.5177,1.5208,1.5212,1.5234,1.5275,1.5293,1.5307,1.534,1.5343,1.5348,1.536,1.5379,1.5383,1.5386,1.5398,1.5402,1.5351,1.5351,1.5351,0,1.5059,1.5092,1.5101,1.5125,1.5139,1.5143,1.5168,1.5183,1.5213,1.5223,1.5219,1.5271,1.5288,1.5326,1.5334,1.5345,1.5353,1.5345,1.5381,1.5384,1.5387,1.5399,1.5403,1.5351,1.5351,1.5351,1.5351,0,1.51,1.5123,1.5139,1.5166,1.5183,1.5206,1.5221,1.5236,1.5242,1.5253,1.5286,1.5306,1.5334,1.5344,1.535,1.5383,1.538,1.5378,1.537,1.5392,1.5403,1.5407,1.5352,1.5352,1.5352,1.5351,0,0,1.5128,1.516,1.5166,1.5179,1.5204,1.5223,1.5247,1.5273,1.5286,1.5307,1.5329,1.5364,1.5362,1.5379,1.5387,1.5404,1.5429,1.54,1.5401,1.5404,1.5467,1.5468,1.5473,1.5431,1.5432,1.5432,1.5465,0,1.5158,1.52,1.5209,1.5246,1.5267,1.5272,1.5294,1.5313,1.5325,1.5346,1.5359,1.5384,1.538,1.5389,1.5406,1.5422,1.5441,1.542,1.5452,1.5453,1.5445,1.5479,1.548,1.5509,1.5469,1.547,1.547,0,1.5197,1.5217,1.5256,1.5279,1.5288,1.5307,1.5332,1.5351,1.5373,1.5381,1.5399,1.5405,1.5432,1.5423,1.5461,1.5446,1.546,1.5469,1.5471,1.5474,1.5463,1.5483,1.5519,1.5523,1.5477,1.5477,1.5476,0,1.5214,1.5251,1.5279,1.5289,1.5317,1.533,1.5342,1.5363,1.5379,1.5401,1.5411,1.5436,1.545,1.5471,1.5484,1.5476,1.5521,1.5513,1.5529,1.5529,1.5538,1.5537,1.5577,1.5547,1.5547,1.5547,1.5547,0,1.5245,1.5269,1.5286,1.5304,1.533,1.5342,1.5368,1.5381,1.54,1.542,1.5427,1.5447,1.5463,1.5485,1.5496,1.5526,1.5533,1.554,1.5543,1.554,1.5539,1.5549,1.5547,1.5548,1.5548,1.5548,1.5548,0,1.5268,1.5281,1.5312,1.5335,1.5341,1.536,1.5381,1.5398,1.541,1.5436,1.5443,1.5462,1.5489,1.5504,1.5538,1.5545,1.5578,1.558,1.557,1.5572,1.5587,1.5585,1.5634,1.5642,1.5607,1.5607,1.5608,0,1.5288,1.5306,1.533,1.5344,1.5356,1.5378,1.5393,1.5405,1.5421,1.5447,1.5462,1.5488,1.551,1.5552,1.557,1.5596,1.5599,1.5614,1.5603,1.5599,1.5599,1.5597,1.5599,1.5616,1.5616,1.5617,1.5617,0,1.532,1.5326,1.5346,1.5369,1.5387,1.5406,1.5425,1.5436,1.5451,1.5469,1.5495,1.5512,1.5546,1.5572,1.56,1.5614,1.5618,1.562,1.5625,1.5622,1.5615,1.5619,1.5576,1.5619,1.5619,1.5619,1.5619,1.5618,1.5342,1.5358,1.5378,1.5401,1.5416,1.5434,1.5451,1.5465,1.5486,1.5514,1.552,1.5548,1.557,1.5607,1.5622,1.5645,1.5643,1.565,1.5652,1.5654,1.5654,1.5612,1.565,1.565,1.565,1.565,1.565,0,1.5375,1.5388,1.5409,1.5435,1.5453,1.5454,1.5475,1.5491,1.5514,1.5534,1.5555,1.5586,1.5611,1.5631,1.5658,1.5672,1.5675,1.5679,1.5678,1.5681,1.5655,1.5647,1.5676,1.5676,1.5676,1.5676,1.5676,1.5676,1.5395,1.5422,1.543,1.5465,1.5478,1.5504,1.5516,1.5533,1.5548,1.5582,1.5602,1.5614,1.5635,1.5663,1.5687,1.5692,1.5701,1.5705,1.5711,1.5686,1.5683,1.568,1.5673,1.5707,1.5707,1.5735,1.5735,1.5735]},{"header":{"parameterUnit":"m.s-1","parameterCategory":1,"la1":30.2991,"la2":30.254,"lo1":-89.0895,"lo2":-89.0444,"dy":0.0017,"dx":0.0017,"nx":28,"ny":28,"refTime":"2025-08-23T03:00:00:Z","depth":0,"parameterNumber":3,"parameterNumberName":"V-component_of_WINDS"},"data":[0,0,0,0,0,0,0,0,0,0,0,0,0,0,0,0,0,0,0,0,0,0,0,0,0,0,0,0,0,0,0,0,0,0,0,0,0,0,0,0,0,0,0,0,0,0,0,0,0,0,0,0,0,0,0,0,0,0,2.048,2.0482,0,2.0652,2.0654,2.0656,2.066,2.0658,2.0656,2.0654,2.0827,2.0834,2.084,0,0,0,0,0,0,0,0,0,0,0,0,0,2.0148,2.0154,2.048,2.0482,2.0484,2.0652,2.0654,2.0657,2.0661,2.0658,2.0656,2.0653,2.0825,2.0833,2.0841,0,0,0,0,0,0,0,0,0,0,0,0,0,2.0303,2.0156,2.0479,2.0507,2.0511,2.0651,2.0654,2.0657,2.0661,2.0658,2.0655,2.0652,2.0822,2.0832,2.0842,2.0966,0,0,2.0872,2.0876,0,0,0,0,0,0,0,0,2.0294,2.0315,2.05,2.0505,2.051,2.0632,2.0601,2.076,2.0662,2.0604,2.0654,2.0651,2.0764,2.0779,2.0818,2.0974,2.0981,2.0873,2.0879,2.0883,2.0886,0,0,0,0,0,0,0,2.0284,2.0308,2.0548,2.0503,2.0509,2.0508,2.0526,2.0631,2.07,2.0609,2.061,2.063,2.0766,2.0808,2.0822,2.0984,2.0872,2.0881,2.0887,2.0891,2.1244,2.1247,0,0,0,0,0,0,2.0268,2.0299,2.0542,2.0553,2.0392,2.0516,2.0537,2.0596,2.0699,2.0711,2.0633,2.063,2.0793,2.0811,2.0828,2.0976,2.0883,2.0892,2.0898,2.124,2.1245,2.1248,0,0,0,0,0,0,2.0261,2.029,2.0535,2.0426,2.0457,2.0526,2.0591,2.0601,2.0643,2.0717,2.0728,2.0663,2.0791,2.0814,2.093,2.0982,2.0896,2.0905,2.1236,2.1242,2.1246,2.1276,0,0,0,0,0,0,2.0252,2.0287,2.0337,2.0427,2.0463,2.0637,2.0595,2.0606,2.066,2.0658,2.0749,2.0761,2.0791,2.0916,2.094,2.0994,2.0913,2.1232,2.1239,2.1245,2.127,2.1281,2.1291,0,0,0,0,0,2.024,2.0339,2.034,2.0369,2.0527,2.064,2.066,2.0694,2.0665,2.0713,2.076,2.0758,2.0973,2.0928,2.0955,2.1013,2.1229,2.1237,2.1244,2.1266,2.1279,2.129,0,0,0,0,0,0,2.0253,2.0351,2.0353,2.0485,2.0554,2.0641,2.0704,2.0708,2.0786,2.078,2.0818,2.0838,2.0952,2.0995,2.0942,2.1136,2.1097,2.1111,2.1104,2.1117,2.1127,2.1113,2.0921,0,0,0,0,0,2.0271,2.0356,2.0437,2.0545,2.058,2.0636,2.0686,2.0706,2.0779,2.0808,2.0863,2.0932,2.1014,2.1069,2.1149,2.1277,2.1294,2.133,2.134,2.1348,2.1358,2.1424,2.1439,2.1274,2.1274,2.1274,0,0,2.0309,2.0374,2.0426,2.0549,2.0605,2.069,2.0661,2.0753,2.0815,2.0821,2.0934,2.0976,2.1055,2.1176,2.1232,2.1215,2.1408,2.1358,2.1363,2.137,2.1433,2.1449,2.1463,2.1279,2.1278,2.1277,0,0,2.0422,2.0481,2.0576,2.0632,2.0716,2.0752,2.0775,2.086,2.0889,2.1002,2.1007,2.1081,2.1224,2.1279,2.1325,2.1454,2.1453,2.1479,2.1531,2.1594,2.1607,2.1619,2.1661,2.1676,2.149,2.149,2.149,0,2.0459,2.0589,2.0624,2.0715,2.0767,2.0777,2.087,2.0923,2.1029,2.1064,2.1043,2.1219,2.1274,2.1405,2.1436,2.1475,2.1499,2.1468,2.1603,2.1615,2.1626,2.1667,2.1683,2.1492,2.1492,2.1492,2.1492,0,2.0627,2.0717,2.0783,2.0884,2.0944,2.1037,2.1082,2.1138,2.1152,2.1189,2.1301,2.1366,2.1458,2.1491,2.1506,2.1623,2.1609,2.1596,2.1557,2.1644,2.1682,2.1698,2.1496,2.1495,2.1494,2.1493,0,0,2.0754,2.0872,2.0895,2.094,2.1032,2.1101,2.1191,2.1281,2.1326,2.1398,2.1472,2.1591,2.1578,2.163,2.1651,2.1707,2.1799,2.1686,2.1688,2.1701,2.1927,2.1935,2.1952,2.1799,2.1802,2.1805,2.1919,0,2.0874,2.1037,2.1069,2.1209,2.1289,2.1298,2.1376,2.1439,2.1475,2.1546,2.1586,2.1668,2.1646,2.1677,2.1733,2.1776,2.1844,2.1768,2.1865,2.1868,2.1843,2.1973,2.1983,2.2088,2.1935,2.1937,2.1939,0,2.1037,2.1112,2.126,2.1337,2.1372,2.1442,2.1525,2.1594,2.1664,2.1686,2.1743,2.1756,2.1846,2.1804,2.1927,2.1875,2.1916,2.1942,2.1947,2.1956,2.1907,2.1982,2.2123,2.2137,2.1964,2.1962,2.196,0,2.111,2.1248,2.1353,2.1392,2.1486,2.1534,2.1575,2.1642,2.1693,2.1764,2.1796,2.1877,2.1921,2.1982,2.2014,2.1982,2.2133,2.2095,2.215,2.2149,2.2181,2.2178,2.2327,2.2212,2.2212,2.2211,2.2211,0,2.1239,2.1328,2.1387,2.1451,2.155,2.1584,2.168,2.172,2.1779,2.1849,2.1861,2.1926,2.1967,2.2036,2.2063,2.2157,2.2178,2.2195,2.2201,2.2193,2.219,2.2219,2.2211,2.2216,2.2215,2.2214,2.2213,0,2.1337,2.1381,2.1495,2.1574,2.1595,2.1664,2.173,2.1791,2.1826,2.1914,2.1936,2.1991,2.2073,2.2112,2.2214,2.2231,2.2337,2.234,2.2314,2.2315,2.2367,2.236,2.2538,2.2561,2.2433,2.2434,2.2435,0,2.1416,2.1484,2.157,2.1618,2.166,2.1738,2.1788,2.1824,2.1876,2.1958,2.2008,2.2091,2.2159,2.2289,2.2336,2.2412,2.2414,2.2471,2.2426,2.2414,2.2411,2.2405,2.241,2.2478,2.248,2.2481,2.2481,0,2.1549,2.1566,2.164,2.1721,2.1781,2.1846,2.191,2.1947,2.1992,2.2049,2.2134,2.2186,2.2289,2.2369,2.2448,2.2487,2.249,2.2495,2.2511,2.2503,2.2484,2.2491,2.2333,2.2491,2.249,2.2489,2.2489,2.2488,2.1638,2.1697,2.1765,2.1846,2.1897,2.1955,2.2015,2.2057,2.2128,2.2215,2.2231,2.2319,2.2383,2.2489,2.2531,2.2598,2.2585,2.261,2.2615,2.262,2.2621,2.2475,2.2613,2.2613,2.2613,2.2613,2.2612,0,2.1768,2.1812,2.1886,2.1974,2.2036,2.2035,2.2104,2.2155,2.2233,2.2293,2.2359,2.2453,2.253,2.2582,2.2659,2.2702,2.2705,2.2721,2.2716,2.2724,2.263,2.2607,2.2717,2.2717,2.2717,2.2716,2.2716,2.2716,2.1844,2.1943,2.1967,2.209,2.2133,2.222,2.2259,2.2311,2.2359,2.2463,2.2527,2.2561,2.2616,2.2697,2.2766,2.2778,2.2805,2.282,2.2832,2.2743,2.2732,2.2721,2.2699,2.2826,2.2827,2.292,2.2921,2.2922]}]]